QPF
0.00 0.03 0.07 0.07 0.04 0.04 0.03 0.00 0.00 0.00 0.00 0.00 0.00 0.01 0.03 0.03 0.02 0.04 0.02 0.00 0.01 0.01 0.00 0.00 0.00 0.00 0.00 0.01 0.01 0.01 0.01 0.03 0.03 0.02 0.01 0.00 0.00 0.00 0.00 0.00 0.01 0.01 0.03
0.00 0.00 0.05 0.13 0.07 0.02 0.02 0.02 0.00 0.00 0.00 0.00 0.01 0.01 0.01 0.02 0.02 0.01 0.01 0.00 0.00 0.00 0.00 0.00 0.01 0.01 0.01 0.05 0.05 0.04 0.03 0.03 0.04 0.06 0.05 0.03 0.04 0.03 0.03 0.01 0.01 0.07 0.03
0.00 0.01 0.02 0.18 0.03 0.00 0.00 0.00 0.01 0.02 0.00 0.00 0.00 0.00 0.00 0.01 0.00 0.01 0.01 0.01 0.01 0.01 0.00 0.00 0.00 0.01 0.01 0.02 0.02 0.00 0.01 0.02 0.00 0.00 0.00 0.01 0.03 0.03 0.00 0.00 0.01 0.03 0.03
0.00 0.00 0.00 0.07 0.01 0.00 0.00 0.00 0.00 0.00 0.06 0.06 0.00 0.01 0.00 0.03 0.10 0.09 0.05 0.01 0.03 0.03 0.01 0.02 0.00 0.00 0.00 0.00 0.00 0.00 0.00 0.00 0.00 0.00 0.00 0.00 0.00 0.06 0.03 0.00 0.00 0.02 0.01
0.00 0.00 0.00 0.00 0.00 0.00 0.01 0.03 0.01 0.00 0.05 0.03 0.03 0.02 0.02 0.07 0.15 0.29 0.09 0.02 0.03 0.02 0.02 0.03 0.04 0.08 0.01 0.00 0.00 0.00 0.00 0.00 0.00 0.00 0.00 0.00 0.02 0.05 0.02 0.03 0.01 0.01 0.01
0.00 0.00 0.00 0.00 0.00 0.00 0.03 0.10 0.08 0.00 0.06 0.19 0.15 0.03 0.05 0.08 0.10 0.08 0.11 0.02 0.04 0.04 0.04 0.06 0.01 0.00 0.00 0.00 0.00 0.00 0.00 0.00 0.00 0.00 0.00 0.00 0.00 0.02 0.03 0.03 0.00 0.00 0.00
0.00 0.00 0.00 0.01 0.00 0.01 0.01 0.04 0.06 0.08 0.15 0.11 0.07 0.06 0.11 0.17 0.09 0.05 0.01 0.01 0.01 0.02 0.00 0.00 0.00 0.00 0.00 0.00 0.00 0.00 0.00 0.00 0.00 0.00 0.00 0.00 0.00 0.00 0.00 0.01 0.02 0.04 0.03
0.00 0.00 0.00 0.02 0.02 0.05 0.07 0.07 0.05 0.04 0.00 0.00 0.01 0.09 0.11 0.13 0.06 0.05 0.00 0.01 0.01 0.02 0.02 0.00 0.01 0.02 0.01 0.00 0.00 0.00 0.00 0.00 0.00 0.00 0.00 0.00 0.00 0.00 0.00 0.00 0.00 0.01 0.00
0.00 0.00 0.01 0.00 0.02 0.04 0.01 0.01 0.04 0.02 0.00 0.01 0.09 0.14 0.08 0.11 0.14 0.02 0.03 0.03 0.01 0.01 0.00 0.00 0.00 0.00 0.00 0.01 0.01 0.00 0.00 0.00 0.00 0.00 0.00 0.00 0.00 0.00 0.00 0.00 0.00 0.00 0.00
0.00 0.00 0.01 0.00 0.01 0.01 0.02 0.05 0.03 0.00 0.00 0.02 0.10 0.09 0.07 0.03 0.18 0.13 0.10 0.08 0.00 0.00 0.00 0.00 0.00 0.00 0.00 0.00 0.00 0.00 0.00 0.00 0.00 0.00 0.00 0.00 0.00 0.00 0.00 0.00 0.00 0.00 0.00
0.00 0.00 0.00 0.01 0.01 0.03 0.06 0.05 0.02 0.02 0.01 0.01 0.02 0.02 0.01 0.01 0.03 0.08 0.07 0.03 0.00 0.00 0.00 0.00 0.00 0.00 0.02 0.00 0.00 0.00 0.00 0.00 0.00 0.00 0.00 0.00 0.01 0.00 0.00 0.00 0.00 0.00 0.00
0.00 0.00 0.01 0.01 0.00 0.02 0.01 0.02 0.01 0.00 0.00 0.00 0.00 0.00 0.00 0.00 0.05 0.06 0.04 0.01 0.00 0.00 0.00 0.00 0.00 0.00 0.00 0.00 0.00 0.00 0.00 0.00 0.00 0.00 0.00 0.00 0.01 0.00 0.00 0.00 0.00 0.00 0.00
0.00 0.00 0.00 0.00 0.00 0.01 0.01 0.00 0.00 0.00 0.00 0.00 0.00 0.00 0.00 0.00 0.00 0.01 0.01 0.00 0.00 0.00 0.00 0.00 0.00 0.00 0.00 0.00 0.00 0.00 0.00 0.00 0.00 0.00 0.00 0.00 0.00 0.00 0.00 0.00 0.00 0.00 0.00
0.00 0.00 0.00 0.00 0.00 0.02 0.01 0.00 0.00 0.00 0.00 0.00 0.00 0.00 0.00 0.00 0.00 0.00 0.00 0.00 0.00 0.00 0.00 0.00 0.00 0.00 0.00 0.00 0.00 0.00 0.00 0.00 0.00 0.00 0.00 0.00 0.00 0.00 0.00 0.00 0.00 0.00 0.00
0.00 0.00 0.00 0.00 0.01 0.03 0.02 0.00 0.00 0.00 0.00 0.00 0.00 0.00 0.00 0.00 0.00 0.00 0.00 0.00 0.00 0.00 0.00 0.00 0.00 0.00 0.00 0.00 0.00 0.00 0.00 0.00 0.00 0.00 0.00 0.00 0.00 0.00 0.00 0.00 0.00 0.00 0.00
0.00 0.00 0.00 0.00 0.00 0.00 0.00 0.00 0.00 0.00 0.00 0.00 0.00 0.00 0.00 0.00 0.00 0.00 0.00 0.00 0.00 0.00 0.00 0.00 0.00 0.00 0.00 0.00 0.00 0.00 0.00 0.00 0.00 0.00 0.00 0.00 0.00 0.00 0.00 0.00 0.00 0.00 0.00
0.00 0.00 0.00 0.00 0.00 0.00 0.00 0.00 0.00 0.00 0.00 0.00 0.00 0.00 0.00 0.00 0.00 0.00 0.00 0.00 0.00 0.00 0.00 0.00 0.00 0.00 0.00 0.00 0.00 0.00 0.00 0.00 0.00 0.00 0.00 0.00 0.00 0.00 0.00 0.00 0.00 0.00 0.00
0.00 0.00 0.00 0.00 0.00 0.00 0.00 0.00 0.02 0.00 0.00 0.00 0.00 0.00 0.00 0.00 0.00 0.00 0.00 0.00 0.00 0.00 0.00 0.00 0.00 0.00 0.00 0.00 0.00 0.00 0.00 0.00 0.00 0.00 0.00 0.00 0.00 0.00 0.00 0.00 0.00 0.00 0.00
0.00 0.00 0.00 0.00 0.00 0.00 0.00 0.00 0.00 0.00 0.00 0.00 0.00 0.00 0.00 0.00 0.01 0.00 0.00 0.00 0.00 0.00 0.00 0.00 0.00 0.00 0.00 0.00 0.00 0.00 0.00 0.00 0.00 0.00 0.00 0.00 0.00 0.00 0.00 0.00 0.00 0.00 0.00
0.00 0.00 0.00 0.00 0.00 0.00 0.00 0.00 0.00 0.00 0.00 0.00 0.00 0.00 0.00 0.00 0.00 0.00 0.00 0.00 0.00 0.00 0.00 0.00 0.00 0.00 0.00 0.00 0.00 0.00 0.00 0.00 0.00 0.00 0.00 0.00 0.00 0.00 0.00 0.00 0.00 0.00 0.00
0.00 0.00 0.00 0.00 0.00 0.00 0.01 0.00 0.00 0.00 0.00 0.01 0.01 0.00 0.00 0.00 0.00 0.00 0.00 0.00 0.00 0.00 0.00 0.00 0.00 0.00 0.00 0.00 0.00 0.00 0.00 0.00 0.00 0.00 0.00 0.00 0.00 0.00 0.00 0.00 0.00 0.00 0.00
0.00 0.00 0.00 0.00 0.00 0.00 0.00 0.00 0.00 0.00 0.01 0.05 0.02 0.03 0.01 0.00 0.00 0.00 0.00 0.00 0.00 0.00 0.00 0.00 0.00 0.00 0.00 0.00 0.00 0.00 0.00 0.00 0.00 0.00 0.00 0.00 0.00 0.00 0.00 0.00 0.00 0.00 0.00
0.00 0.00 0.00 0.00 0.00 0.00 0.00 0.00 0.00 0.00 0.01 0.06 0.03 0.04 0.00 0.00 0.00 0.00 0.00 0.00 0.00 0.00 0.00 0.00 0.00 0.00 0.00 0.00 0.00 0.00 0.00 0.00 0.00 0.00 0.00 0.00 0.00 0.00 0.00 0.00 0.00 0.00 0.00
0.00 0.00 0.00 0.00 0.00 0.00 0.00 0.00 0.02 0.03 0.07 0.09 0.07 0.03 0.00 0.00 0.00 0.00 0.00 0.00 0.00 0.00 0.00 0.00 0.00 0.00 0.00 0.00 0.00 0.00 0.00 0.00 0.00 0.00 0.00 0.00 0.00 0.00 0.00 0.00 0.00 0.00 0.00
0.00 0.00 0.00 0.00 0.00 0.00 0.00 0.00 0.00 0.01 0.03 0.03 0.01 0.04 0.05 0.08 0.05 0.00 0.00 0.00 0.00 0.00 0.00 0.00 0.00 0.00 0.00 0.00 0.00 0.00 0.00 0.00 0.00 0.00 0.00 0.00 0.00 0.00 0.00 0.00 0.00 0.00 0.00
0.00 0.00 0.00 0.00 0.00 0.00 0.00 0.00 0.01 0.02 0.01 0.00 0.01 0.02 0.05 0.05 0.07 0.05 0.00 0.00 0.00 0.00 0.00 0.00 0.00 0.00 0.00 0.00 0.00 0.00 0.00 0.00 0.00 0.00 0.00 0.00 0.00 0.00 0.00 0.00 0.00 0.00 0.00
MSLP
1017.13 1017.17 1017.52 1017.48 1017.55 1017.66 1017.82 1017.94 1018.04 1018.00 1017.99 1017.99 1017.96 1018.03 1018.08 1018.16 1018.22 1018.26 1018.22 1018.29 1018.31 1018.35 1018.44 1018.49 1018.65 1018.78 1018.80 1018.86 1018.89 1019.14 1019.23 1019.16 1019.26 1019.19 1019.17 1019.28 1019.16 1019.24 1019.31 1019.22 1018.99 1018.89 1019.60
1016.64 1017.08 1017.44 1017.63 1017.71 1017.94 1018.11 1018.17 1018.18 1018.22 1018.28 1018.33 1018.36 1018.38 1018.36 1018.42 1018.51 1018.64 1018.64 1018.63 1018.71 1018.77 1018.80 1018.80 1018.93 1019.12 1019.27 1019.30 1019.47 1019.52 1019.49 1019.56 1019.61 1019.70 1019.59 1019.57 1019.63 1019.62 1019.63 1019.46 1019.31 1019.68 1019.82
1016.58 1017.03 1017.41 1017.72 1017.93 1018.15 1018.25 1018.36 1018.41 1018.46 1018.52 1018.61 1018.62 1018.61 1018.61 1018.63 1018.72 1018.77 1018.85 1018.90 1019.01 1019.05 1019.08 1019.10 1019.24 1019.40 1019.51 1019.64 1019.62 1019.69 1019.91 1019.91 1020.00 1020.20 1019.83 1019.48 1019.70 1020.00 1019.93 1019.83 1019.88 1020.15 1020.23
1016.69 1017.17 1017.44 1017.97 1018.12 1018.31 1018.44 1018.51 1018.58 1018.66 1018.70 1018.80 1018.80 1018.74 1018.80 1018.85 1018.94 1018.99 1019.07 1019.27 1019.33 1019.37 1019.54 1019.46 1019.59 1019.68 1019.89 1019.99 1020.06 1020.20 1020.30 1020.42 1020.46 1020.35 1019.98 1019.61 1019.78 1020.38 1020.22 1020.27 1020.41 1020.50 1020.53
1016.99 1017.29 1017.68 1018.05 1018.21 1018.43 1018.61 1018.64 1018.73 1018.85 1018.94 1019.02 1019.04 1019.15 1019.15 1019.24 1019.03 1019.13 1019.40 1019.70 1019.75 1019.77 1019.82 1019.95 1020.09 1020.19 1020.19 1020.34 1020.40 1020.51 1020.66 1020.70 1020.71 1020.44 1020.33 1020.36 1020.29 1020.70 1020.68 1020.62 1020.70 1020.84 1020.80
1017.07 1017.41 1018.03 1018.23 1018.34 1018.56 1018.93 1018.91 1018.93 1019.02 1019.09 1019.17 1019.32 1019.52 1019.60 1019.36 1019.39 1019.56 1019.82 1019.97 1020.12 1020.17 1020.17 1020.19 1020.28 1020.41 1020.47 1020.56 1020.75 1020.86 1020.87 1021.03 1020.91 1020.77 1020.83 1021.13 1020.92 1021.15 1021.13 1021.10 1021.20 1021.28 1021.25
1017.31 1017.69 1017.97 1018.32 1018.55 1018.72 1018.93 1019.10 1019.19 1019.30 1019.33 1019.47 1019.58 1019.55 1019.74 1019.74 1019.89 1019.80 1020.03 1020.21 1020.23 1020.50 1020.46 1020.47 1020.50 1020.68 1020.77 1020.94 1021.01 1021.05 1021.23 1021.39 1021.12 1021.19 1021.26 1021.34 1021.46 1021.60 1021.56 1021.56 1021.64 1021.69 1021.62
1017.54 1017.78 1018.07 1018.52 1018.77 1019.00 1019.17 1019.26 1019.38 1019.45 1019.59 1019.67 1019.68 1019.78 1019.96 1020.09 1020.18 1020.21 1020.43 1020.58 1020.63 1020.77 1020.80 1020.85 1020.84 1021.01 1021.16 1021.29 1021.40 1021.53 1021.64 1021.61 1021.49 1021.66 1021.66 1021.63 1022.04 1022.00 1021.97 1022.00 1021.93 1021.96 1021.99
1017.93 1018.07 1018.27 1018.38 1018.91 1019.19 1019.34 1019.46 1019.54 1019.60 1019.74 1019.82 1019.94 1019.98 1020.22 1020.34 1020.57 1020.63 1020.78 1020.87 1020.90 1020.99 1021.04 1021.20 1021.29 1021.38 1021.51 1021.65 1021.78 1021.89 1022.03 1022.09 1021.87 1021.93 1021.80 1021.91 1022.51 1022.43 1022.42 1022.37 1022.35 1022.35 1022.38
1018.28 1018.39 1018.69 1018.83 1019.07 1019.25 1019.45 1019.72 1019.78 1019.89 1019.93 1020.06 1020.35 1020.41 1020.45 1020.71 1020.97 1021.07 1021.28 1021.25 1021.27 1021.31 1021.39 1021.50 1021.59 1021.68 1021.78 1021.94 1022.03 1022.13 1022.23 1022.32 1022.06 1022.14 1022.14 1022.42 1022.75 1022.71 1022.67 1022.68 1022.70 1022.72 1022.71
1018.82 1018.90 1019.06 1019.04 1019.29 1019.60 1019.78 1019.96 1019.98 1020.14 1020.19 1020.35 1020.63 1020.94 1020.94 1021.04 1021.17 1021.38 1021.67 1021.51 1021.64 1021.73 1021.73 1021.74 1021.85 1021.98 1022.02 1022.13 1022.21 1022.25 1022.34 1022.05 1022.14 1022.31 1022.36 1022.94 1022.87 1022.85 1022.93 1022.99 1023.05 1023.05 1023.00
1018.95 1019.18 1019.31 1019.36 1019.46 1019.73 1019.84 1020.27 1020.32 1020.38 1020.39 1020.62 1020.85 1021.07 1021.12 1021.28 1021.47 1021.44 1021.77 1022.01 1022.16 1022.05 1022.01 1022.10 1022.28 1022.32 1022.18 1021.97 1022.02 1022.37 1022.02 1022.26 1022.37 1022.50 1022.50 1023.10 1023.02 1023.04 1023.15 1023.24 1023.25 1023.16 1023.11
1019.12 1019.43 1019.61 1019.74 1019.94 1020.04 1020.33 1020.42 1020.36 1020.49 1020.69 1021.00 1021.23 1021.29 1021.48 1021.63 1021.86 1021.98 1022.18 1022.26 1022.35 1022.43 1022.10 1022.18 1022.18 1022.11 1022.17 1022.15 1022.11 1022.12 1022.34 1022.38 1022.29 1022.45 1022.86 1023.28 1023.23 1023.20 1023.24 1023.28 1023.24 1023.19 1023.17
1019.15 1019.50 1019.71 1019.86 1020.19 1020.40 1020.57 1020.52 1020.58 1020.67 1020.84 1021.00 1021.35 1021.63 1021.68 1021.69 1022.03 1022.25 1022.37 1022.55 1022.53 1022.49 1022.48 1022.41 1022.09 1022.19 1022.08 1022.12 1022.11 1022.20 1022.28 1022.31 1022.37 1022.51 1022.86 1023.33 1023.35 1023.31 1023.28 1023.27 1023.23 1023.19 1023.12
1018.97 1019.44 1019.83 1020.07 1020.37 1020.50 1020.56 1020.61 1020.81 1020.97 1020.96 1021.12 1021.36 1021.64 1021.73 1021.86 1022.22 1022.37 1022.69 1022.59 1022.65 1022.59 1022.45 1022.34 1022.33 1022.16 1022.00 1021.92 1022.03 1022.24 1022.28 1022.44 1022.55 1022.55 1022.69 1023.32 1023.41 1023.40 1023.30 1023.23 1023.19 1023.10 1023.01
1018.89 1019.34 1019.84 1020.20 1020.41 1020.56 1020.74 1020.85 1020.96 1021.16 1021.33 1021.40 1021.50 1021.64 1021.93 1021.96 1022.23 1022.37 1022.59 1022.54 1022.67 1022.64 1022.55 1022.47 1022.31 1022.10 1021.92 1021.75 1022.01 1022.08 1022.15 1022.25 1022.49 1022.61 1022.55 1022.72 1023.27 1023.23 1023.25 1023.19 1023.11 1023.00 1022.86
1018.84 1019.33 1019.79 1020.16 1020.48 1020.70 1020.87 1020.99 1021.02 1021.14 1021.25 1021.41 1021.66 1021.97 1022.14 1022.18 1022.43 1022.54 1022.56 1022.62 1022.69 1022.74 1022.64 1022.52 1022.19 1022.03 1021.76 1021.74 1021.92 1021.98 1022.01 1022.16 1022.21 1022.43 1022.45 1022.51 1022.61 1023.06 1023.04 1023.00 1022.92 1022.81 1022.67
1018.86 1019.38 1019.80 1019.77 1020.33 1020.67 1020.95 1021.11 1021.16 1021.26 1021.34 1021.53 1021.68 1021.94 1022.20 1022.34 1022.51 1022.55 1022.41 1022.61 1022.78 1022.69 1022.44 1022.23 1021.98 1021.94 1022.00 1021.98 1021.95 1021.89 1021.83 1021.97 1022.07 1022.22 1022.24 1022.34 1022.45 1022.39 1022.64 1022.78 1022.70 1022.63 1022.49
1018.91 1019.41 1019.75 1020.05 1020.30 1020.70 1021.08 1021.10 1021.29 1021.45 1021.46 1021.66 1021.87 1022.01 1022.23 1022.42 1022.53 1022.49 1022.48 1022.62 1022.75 1022.52 1022.36 1022.07 1022.12 1022.11 1022.10 1022.03 1021.92 1021.82 1021.66 1021.66 1021.76 1021.72 1022.05 1022.19 1022.24 1022.29 1022.14 1022.29 1022.48 1022.45 1022.31
1018.87 1019.43 1019.71 1019.97 1020.32 1020.63 1021.02 1021.32 1021.36 1021.42 1021.54 1021.77 1021.78 1021.95 1022.31 1022.38 1022.47 1022.58 1022.60 1022.59 1022.54 1022.34 1022.32 1022.17 1022.20 1022.18 1022.27 1022.23 1021.84 1021.58 1021.62 1021.46 1021.57 1021.67 1021.70 1021.79 1021.96 1022.15 1021.98 1022.05 1021.89 1021.64 1021.98
1018.63 1019.25 1019.64 1019.90 1020.23 1020.68 1021.03 1021.14 1021.42 1021.40 1021.61 1021.69 1021.75 1022.02 1022.20 1022.24 1022.47 1022.60 1022.51 1022.65 1022.56 1022.43 1022.50 1022.38 1022.39 1022.35 1022.14 1022.31 1021.88 1021.47 1021.49 1021.50 1021.42 1021.39 1021.43 1021.48 1021.67 1021.74 1021.75 1021.60 1021.69 1021.55 1021.29
1018.16 1018.90 1019.42 1019.74 1020.15 1020.39 1020.74 1020.84 1021.04 1021.41 1021.95 1021.57 1021.86 1021.83 1022.02 1022.21 1022.43 1022.50 1022.56 1022.52 1022.57 1022.49 1022.57 1022.52 1022.59 1022.34 1022.34 1022.46 1022.05 1021.81 1021.26 1021.27 1021.14 1021.23 1021.29 1021.35 1021.43 1021.44 1021.36 1021.40 1021.48 1021.53 1021.30
1017.75 1018.35 1019.12 1019.52 1020.06 1020.27 1020.53 1020.88 1021.23 1021.51 1021.74 1021.91 1021.92 1021.94 1021.98 1022.27 1022.41 1022.47 1022.55 1022.62 1022.66 1022.43 1022.49 1022.70 1022.73 1022.67 1022.35 1022.58 1022.60 1022.17 1021.49 1021.33 1021.42 1021.17 1021.22 1021.29 1021.43 1021.26 1021.23 1021.27 1021.19 1021.15 1021.01
1017.26 1018.07 1018.93 1019.47 1019.91 1020.33 1020.54 1020.67 1020.86 1020.92 1021.35 1021.63 1021.69 1021.81 1021.82 1022.15 1022.28 1022.47 1022.51 1022.59 1022.71 1022.72 1022.80 1022.82 1022.71 1022.84 1022.64 1022.41 1022.57 1022.56 1022.55 1022.28 1021.62 1020.97 1021.08 1021.19 1021.30 1021.15 1021.26 1020.94 1020.79 1020.76 1020.83
1017.20 1017.74 1018.55 1019.29 1019.83 1020.16 1020.50 1020.57 1020.62 1020.97 1021.27 1021.59 1021.72 1021.81 1021.86 1022.11 1022.25 1022.41 1022.57 1022.64 1022.74 1022.75 1022.99 1022.95 1023.03 1022.93 1022.83 1022.66 1022.51 1022.54 1022.57 1022.40 1022.30 1021.76 1021.08 1021.04 1021.05 1021.30 1021.09 1020.87 1020.74 1020.65 1020.60
1017.16 1017.69 1018.31 1018.98 1019.57 1020.08 1020.47 1020.69 1020.76 1020.75 1021.11 1021.22 1021.49 1021.59 1021.86 1021.90 1022.04 1022.21 1022.43 1022.68 1022.73 1022.78 1022.91 1022.90 1023.01 1023.10 1022.96 1022.99 1022.86 1022.66 1022.52 1022.28 1022.06 1021.82 1021.46 1021.39 1021.29 1021.19 1021.11 1020.75 1020.65 1020.55 1020.49
Thickness
5747 5748 5744 5743 5742 5740 5739 5738 5737 5738 5739 5740 5741 5741 5741 5740 5740 5740 5740 5740 5741 5741 5741 5741 5739 5738 5739 5739 5740 5737 5737 5739 5738 5740 5741 5741 5744 5744 5745 5746 5748 5749 5743
5753 5751 5747 5744 5743 5740 5738 5738 5738 5738 5738 5738 5738 5739 5739 5739 5738 5738 5738 5739 5738 5739 5739 5740 5739 5738 5737 5738 5735 5736 5737 5738 5738 5738 5739 5741 5742 5743 5744 5747 5748 5744 5741
5756 5752 5749 5746 5743 5741 5739 5738 5738 5737 5736 5736 5737 5738 5738 5738 5737 5737 5737 5737 5737 5737 5738 5738 5738 5738 5737 5737 5738 5738 5737 5737 5737 5735 5740 5743 5743 5742 5745 5747 5745 5741 5740
5757 5753 5750 5745 5743 5740 5739 5738 5737 5737 5737 5736 5736 5737 5737 5737 5737 5736 5736 5735 5735 5736 5735 5736 5736 5737 5736 5736 5737 5735 5735 5735 5736 5737 5741 5745 5745 5743 5745 5744 5742 5741 5741
5756 5754 5750 5746 5744 5741 5739 5739 5738 5737 5736 5735 5734 5733 5734 5734 5734 5732 5733 5732 5732 5734 5734 5734 5734 5735 5735 5735 5736 5735 5735 5737 5737 5739 5741 5742 5743 5741 5743 5743 5741 5740 5740
5756 5753 5748 5746 5744 5741 5738 5737 5736 5736 5735 5733 5732 5730 5729 5731 5731 5730 5730 5730 5731 5731 5732 5734 5734 5734 5735 5736 5735 5735 5737 5736 5737 5739 5739 5738 5741 5740 5740 5741 5739 5738 5739
5757 5752 5750 5747 5744 5741 5739 5737 5736 5735 5734 5732 5730 5729 5726 5726 5727 5729 5729 5728 5730 5730 5732 5734 5735 5735 5735 5735 5736 5737 5736 5734 5737 5737 5737 5738 5738 5738 5739 5739 5738 5738 5739
5756 5754 5751 5747 5743 5740 5739 5738 5736 5735 5733 5731 5730 5728 5725 5724 5724 5725 5725 5727 5728 5729 5731 5732 5733 5734 5733 5734 5734 5734 5733 5734 5736 5736 5737 5738 5736 5737 5737 5737 5738 5739 5738
5755 5754 5751 5749 5744 5741 5739 5738 5736 5735 5733 5730 5727 5726 5725 5723 5720 5721 5723 5725 5727 5729 5731 5731 5732 5732 5732 5731 5732 5732 5732 5732 5734 5736 5738 5738 5735 5736 5736 5737 5738 5738 5737
5753 5752 5750 5748 5744 5742 5740 5738 5737 5735 5733 5730 5726 5726 5724 5720 5718 5719 5720 5723 5725 5727 5730 5731 5731 5731 5730 5730 5730 5731 5731 5732 5734 5735 5737 5736 5735 5736 5736 5737 5737 5737 5737
5750 5749 5748 5747 5744 5741 5740 5738 5736 5734 5734 5732 5728 5725 5724 5720 5719 5720 5720 5723 5724 5726 5729 5730 5731 5730 5730 5729 5729 5730 5731 5733 5734 5736 5737 5736 5737 5737 5737 5737 5737 5737 5737
5748 5747 5746 5745 5744 5741 5740 5737 5736 5735 5735 5732 5729 5727 5725 5724 5722 5723 5722 5723 5724 5727 5729 5730 5730 5730 5731 5731 5731 5730 5732 5732 5734 5736 5739 5737 5738 5739 5738 5738 5738 5739 5739
5750 5747 5745 5743 5741 5740 5738 5738 5738 5737 5735 5733 5730 5727 5726 5725 5725 5724 5723 5724 5726 5728 5730 5730 5731 5732 5732 5733 5733 5734 5733 5733 5736 5739 5739 5738 5739 5740 5740 5741 5741 5742 5742
5750 5748 5746 5744 5742 5739 5738 5739 5739 5738 5736 5735 5732 5729 5728 5728 5727 5725 5725 5725 5727 5729 5730 5730 5733 5734 5736 5737 5737 5737 5737 5738 5740 5741 5742 5741 5741 5743 5743 5743 5744 5745 5745
5752 5751 5749 5745 5741 5741 5740 5740 5739 5738 5738 5737 5735 5733 5732 5731 5729 5728 5727 5728 5729 5731 5733 5735 5736 5738 5741 5743 5743 5742 5742 5742 5743 5745 5746 5744 5744 5745 5746 5747 5748 5748 5749
5756 5753 5750 5747 5742 5742 5741 5740 5740 5739 5738 5738 5737 5737 5735 5735 5733 5732 5731 5732 5732 5734 5736 5738 5741 5743 5745 5747 5746 5746 5748 5749 5749 5749 5751 5750 5749 5750 5751 5751 5752 5753 5754
5758 5755 5751 5748 5744 5742 5742 5741 5743 5742 5741 5741 5740 5737 5737 5737 5736 5736 5735 5735 5736 5737 5739 5741 5744 5747 5749 5751 5751 5752 5753 5755 5756 5755 5755 5755 5756 5755 5756 5757 5758 5759 5759
5759 5755 5752 5752 5748 5745 5743 5742 5743 5744 5743 5742 5742 5740 5739 5740 5740 5740 5740 5739 5739 5740 5743 5746 5749 5750 5751 5753 5754 5756 5759 5760 5762 5761 5761 5761 5760 5762 5763 5763 5764 5764 5765
5760 5756 5753 5752 5750 5747 5744 5744 5744 5744 5743 5743 5743 5742 5742 5741 5742 5743 5744 5743 5743 5745 5748 5750 5751 5752 5753 5755 5757 5760 5764 5766 5767 5768 5767 5767 5767 5767 5769 5770 5769 5769 5770
5762 5758 5756 5755 5753 5750 5748 5746 5746 5746 5745 5745 5745 5745 5744 5745 5745 5744 5746 5747 5749 5751 5753 5754 5754 5755 5755 5756 5761 5764 5767 5770 5772 5773 5773 5773 5772 5772 5774 5774 5775 5776 5776
5764 5760 5758 5757 5755 5752 5751 5749 5747 5746 5747 5748 5748 5747 5748 5748 5748 5748 5749 5749 5751 5754 5754 5755 5757 5756 5759 5760 5762 5767 5769 5773 5776 5777 5778 5778 5777 5777 5778 5780 5779 5779 5781
5768 5763 5761 5760 5757 5756 5755 5755 5754 5750 5747 5750 5750 5752 5751 5750 5750 5750 5751 5752 5753 5755 5755 5756 5757 5758 5760 5763 5762 5764 5761 5770 5778 5780 5780 5780 5780 5780 5782 5783 5783 5782 5784
5771 5768 5764 5763 5760 5759 5758 5754 5753 5752 5751 5751 5752 5753 5752 5752 5752 5753 5753 5754 5755 5757 5758 5756 5758 5758 5760 5763 5766 5766 5762 5760 5768 5780 5781 5783 5782 5783 5783 5784 5785 5785 5787
5774 5773 5767 5764 5762 5760 5759 5758 5755 5755 5750 5753 5756 5756 5756 5754 5754 5753 5755 5755 5756 5756 5757 5758 5759 5760 5764 5763 5767 5769 5770 5770 5765 5767 5781 5783 5784 5785 5785 5787 5788 5789 5789
5775 5773 5770 5766 5762 5762 5760 5761 5760 5756 5756 5756 5757 5756 5757 5755 5754 5754 5755 5755 5756 5756 5756 5758 5759 5760 5764 5765 5766 5768 5768 5771 5771 5769 5767 5775 5784 5784 5785 5788 5789 5789 5790
5774 5772 5770 5766 5763 5762 5761 5760 5759 5759 5757 5758 5757 5757 5756 5758 5756 5756 5756 5756 5756 5756 5756 5758 5758 5760 5762 5763 5766 5769 5768 5768 5770 5772 5771 5772 5773 5781 5786 5788 5789 5789 5790